Regional Weather Roundup
Issued by NWS

Home | Current Version | Previous Version | Graphics & Text | Print | Product List | Glossary Off
Versions: 1 2 3 4 5 6 7 8 9 10 11 12 13 14 15 16 17 18 19 20 21 22 23 24 25 26 27 28 29 30 31 32 33 34 35 36 37 38 39 40 41 42 43 44 45 46 47 48 49 50

000
ASUS43 KMPX 181901
RWRMN
WEATHER ROUNDUP FOR MINNESOTA
NATIONAL WEATHER SERVICE TWIN CITIES/CHANHASSEN MN
200 PM CDT FRI APR 18 2014


NOTE: "FAIR" INDICATES FEW OR NO CLOUDS BELOW 12,000 FEET WITH NO
SIGNIFICANT WEATHER AND/OR OBSTRUCTIONS TO VISIBILITY. N/A MEANS
CURRENT SKY AND/OR WEATHER CONDITIONS ARE NOT AVAILABLE.

MNZ060>063-068>070-182000-
   Twin Cities Metro

CITY           SKY/WX    TMP DP  RH WIND       PRES   REMARKS
TWIN CITIES    PTSUNNY   49  28  44 SE12      30.34F
ST PAUL        SUNNY     49  27  42 SE8       30.35F
CRYSTAL        PTSUNNY   47  24  40 SE8       30.33F
EDEN PRAIRIE   PTSUNNY   52  28  39 SE12G18   30.32F
LAKEVILLE      SUNNY     48  30  49 E7        30.34S
SOUTH ST PAUL  SUNNY     51  26  38 SE9       30.34F
LAKE ELMO      FAIR      50  30  46 SE8       30.35F
$$
MNZ001>005-007-008-013>017-022>024-027-028-182000-
   Northwest Minnesota

CITY           SKY/WX    TMP DP  RH WIND       PRES   REMARKS
BEMIDJI        MOSUNNY   47  18  30 SE16G24   30.25F
HALLOCK        CLOUDY    48  23  37 SE20G26   30.20F
ROSEAU         SUNNY     48  12  23 SE16      30.25F
WARROAD        SUNNY     45  23  42 E14G20    30.28F
THIEF RVR FALL PTSUNNY   48  23  37 SE20G25   30.21F
CROOKSTON      CLOUDY    50  23  34 SE17G24   30.20F
FOSSTON        CLOUDY    48  21  34 SE15      30.22F
DETROIT LAKES  PTSUNNY   46  27  46 SE24      30.22F
MOORHEAD       PTSUNNY   48  28  46 SE21      30.18F
PARK RAPIDS    CLOUDY    44  19  36 SE16G25   30.26F
$$
MNZ006-009>011-018-025>026-182000-
   North Central Minnesota

CITY           SKY/WX    TMP DP  RH WIND       PRES   REMARKS
BAUDETTE       SUNNY     45  17  32 E10       30.29F
FLAG ISLAND    SUNNY     37  18  44 SE6       30.31F
INTL FALLS     SUNNY     43  15  32 SE15      30.34F
WASKISH        SUNNY     48  18  29 E13G22    30.28F
BIG FORK       SUNNY     46  16  29 E6        30.31F
LONGVILLE      CLOUDY    48  19  32 SE10      30.29F
GRAND RAPIDS   SUNNY     45  16  31 SE14      30.32F
CRANE LAKE     SUNNY     45  14  29 SE5       30.39S
ORR            SUNNY     43   5  21 E7        30.33F
COOK           SUNNY     43  12  28 E6        30.36F
$$
MNZ012-019>021-037-182000-
   Northeast Minnesota

CITY           SKY/WX    TMP DP  RH WIND       PRES   REMARKS
DULUTH         MOSUNNY   36  18  48 SE12      30.37S
ELY            SUNNY     39  16  38 CALM      30.37S
HIBBING        SUNNY     45  13  27 MISG      30.34F
EVELETH        SUNNY     43   9  24 E3        30.36S
DULUTH HARBOR  SUNNY     34  28  80 CALM      30.43S
TWO HARBORS    SUNNY     37  21  52 SE9       30.39R
SILVER BAY     SUNNY     36  25  64 E8        30.39S
GRAND MARAIS     N/A     36  26  67 SW3       30.43S
G MARAIS ARPRT CLOUDY    34  19  55 SE6       30.37S WCI  29
$$
MNZ029>031-032-039>041-046>048-054>057-064-182000-
   West Central Minnesota

CITY           SKY/WX    TMP DP  RH WIND       PRES   REMARKS
FERGUS FALLS   PTSUNNY   45  19  36 SE23      30.17F
WHEATON        PTSUNNY   46  34  61 E31G38    30.16F
MORRIS         CLOUDY    43  30  61 SE24      30.19F
ALEXANDRIA     MOSUNNY   42  28  57 SE23G30   30.26F
ELBOW LAKE     PTSUNNY   43  28  55 E17G29    30.20F
WADENA         MOSUNNY   45  27  49 SE18G25   30.25F
GLENWOOD       PTSUNNY   43  27  52 SE22      30.26F
APPLETON       PTSUNNY   46  34  61 SE26G32   30.19F
BENSON         CLOUDY    43  30  61 SE16G24   30.23F
ORTONVILLE     MOSUNNY   43  32  65 SE25G31   30.15F
MADISON        MOSUNNY   48  37  66 SE26G36   30.17F
WILLMAR        FAIR      41  32  70 SE17      30.27F
$$
MNZ033>034-036-042>043-049>051-058-059-182000-
   Central Minnesota

CITY           SKY/WX    TMP DP  RH WIND       PRES   REMARKS
ST CLOUD       PTSUNNY   41  27  57 SE12      30.32F
SAUK CENTRE    CLOUDY    41  28  58 E16G22    30.28F
PAYNESVILLE    MOSUNNY   42  30  60 E17       30.30F
AITKIN         MOSUNNY   46  21  36 SE10      30.31F
PINE RIVER     MOSUNNY   45  25  45 SE15G22   30.32F
BRAINERD       PTSUNNY   47  24  40 SE9       30.32F
STAPLES        PTSUNNY   43  25  49 E10G20    30.29F
LONG PRAIRIE   CLOUDY    41  27  56 E12       30.29F
LITTLE FALLS   MOSUNNY   41  27  56 SE12      30.32F
LITCHFIELD     MOSUNNY   43  34  70 SE14      30.30F
BUFFALO        MOSUNNY   46  26  45 E10       30.34S
MAPLE LAKE     PTSUNNY   45  31  57 E6        30.34S
$$
MNZ037-044-045-052-053-182000-
   East Central Minnesota

CITY           SKY/WX    TMP DP  RH WIND       PRES   REMARKS
PRINCETON      MOSUNNY   45  25  45 E10       30.35S
MORA           PTSUNNY   45  27  49 SE6       30.38F
CAMBRIDGE      MOSUNNY   45  28  53 E9        30.34F
RUSH CITY      CLOUDY    44  24  46 SE6       30.37S
MOOSE LAKE     PTSUNNY   45  19  36 E6        30.34S
HINCKLEY       CLOUDY    43  25  49 E6        30.36F
CLOQUET        SUNNY     39  12  33 SE9       30.36F
MCGREGOR       CLOUDY    46  21  36 SE8       30.34F
$$
MNZ071>073-080-081-089-090-097-098-182000-
   Southwest Minnesota

CITY           SKY/WX    TMP DP  RH WIND       PRES   REMARKS
MONTEVIDEO     PTSUNNY   46  36  66 SE24G31   30.22F
GRANITE FALLS  PTSUNNY   43  32  64 E15G24    30.23F
CANBY          PTSUNNY   47  39  72 SE17G25   30.16F
MARSHALL       SUNNY     54  37  54 SE23G32   30.16F
REDWOOD FALLS  PTSUNNY   49  35  58 SE23G30   30.24F
OLIVIA         PTSUNNY   43  32  65 SE12      30.25F
PIPESTONE      SUNNY     57  36  44 S22G32    30.11F
WINDOM         MOSUNNY   54  34  47 E20G29    30.22F
WORTHINGTON    SUNNY     55  30  38 SE21G30   30.21F
JACKSON        SUNNY     55  32  41 SE18G25   30.23F
TRACY          SUNNY     54  38  56 SE20G29   30.19F
SLAYTON        SUNNY     54  37  53 SE25G33   30.17F
$$
MNZ065>067-074>077-082>085-091>093-182000-
   South Central Minnesota

CITY           SKY/WX    TMP DP  RH WIND       PRES   REMARKS
MANKATO        PTSUNNY   50  30  46 SE15G23   30.31F
NEW ULM        PTSUNNY   48  34  57 SE16      30.27F
ST JAMES       MOSUNNY   52  36  54 E16G23    30.27F
FAIRMONT       MOSUNNY   52  34  50 SE16G23   30.28F
GLENCOE        MOSUNNY   49  30  46 SE14      30.30F
FARIBAULT      MOSUNNY   52  28  40 SE9G16    30.33F
OWATONNA       MOSUNNY   52  34  50 SE10      30.33S
WASECA         MOSUNNY   54  36  50 SE12G17   30.33F
ALBERT LEA     SUNNY     52  30  43 SE8       30.31F
$$
MNZ078>079-086>088-094>096-182000-
   Southeast Minnesota

CITY           SKY/WX    TMP DP  RH WIND       PRES   REMARKS
ROCHESTER      SUNNY     49  26  41 SE5       30.33F
RED WING       MOSUNNY   50  25  37 SE7       30.35F
STANTON        SUNNY     50  27  41 SE9       30.33F
DODGE CENTER   SUNNY     52  30  43 SE7       30.33F
WINONA         SUNNY     50  27  40 CALM      30.37S
AUSTIN         SUNNY     52  27  37 SE7       30.32F
PRESTON        SUNNY     50  26  39 E5        30.34F
$$
ABBREVIATIONS USED IN REMARKS
   TC - TEMPERATURES IN CELSIUS
  WCI - WIND CHILL INDEX
   HX - HEAT INDEX
  VSB - VISIBILITY
$$



USA.gov is the U.S. government's official web portal to all federal, state and local government web resources and services.